Regional Weather Roundup
Issued by NWS

Home | Current Version | Previous Version | Text Only | Print | Product List | Glossary Off
Versions: 1 2 3 4 5 6 7 8 9 10 11 12 13 14 15 16 17 18 19 20 21 22 23 24 25 26 27 28 29 30 31 32 33 34 35 36 37 38 39 40 41 42 43 44 45 46 47 48 49 50

474
ASUS43 KDMX 240006
RWRIA

WEATHER ROUNDUP FOR IOWA
NATIONAL WEATHER SERVICE DES MOINES IA
700 PM CDT SUN JUL 23 2017

NOTE: "FAIR" INDICATES FEW OR NO CLOUDS BELOW 12,000 FEET WITH NO
SIGNIFICANT WEATHER AND/OR OBSTRUCTIONS TO VISIBILITY.

* - THESE STATIONS ARE NOT NWS STATIONS...THUS NOT UNDER NWS
QUALITY CONTROL.  THEY ALSO DO NOT REPORT WEATHER SUCH
AS PRECIPITATION OR FOG.

IAZ001>003-012>014-020>022-031>034-043>046-240100-
   NORTHWEST IOWA

CITY           SKY/WX    TMP DP  RH WIND       PRES   REMARKS
CARROLL *      SUNNY     79  63  57 N9        29.94S HX  80
CHEROKEE *     SUNNY     77  61  57 N7        29.97S
DENISON *      SUNNY     79  61  53 N12       29.97S HX  80
ORANGE CITY *  MOSUNNY   77  63  61 NE6       29.99S
SHELDON *      SUNNY     75  61  60 N10       29.98S
SIOUX CITY       N/A     83  59  44 MISG      29.95F HX  83
6HR MIN TEMP:  83; 6HR MAX TEMP:  86;

SPENCER        MOSUNNY   75  58  55 N12       29.99S
6HR MIN TEMP:  75; 6HR MAX TEMP:  81;

STORM LAKE *   SUNNY     75  61  60 NE12G20   29.98R
$$

IAZ055>058-069>071-079>083-090>094-240100-
   SOUTHWEST IOWA

CITY           SKY/WX    TMP DP  RH WIND       PRES   REMARKS
ATLANTIC *     SUNNY     81  61  50 N9G16     29.93S HX  81
AUDUBON *      SUNNY     81  63  54 N8        29.96S HX  82
CLARINDA *     SUNNY     82  68  61 N9G15     29.93S HX  85
COUNCIL BLFS * SUNNY     82  61  47 NW9       29.94S HX  83
CRESTON *      SUNNY     82  61  47 N14       29.94S HAZE    HX  83
HARLAN  *      SUNNY     81  64  57 N8G16     29.98S HX  82
LAMONI         SUNNY     86  63  45 N10       29.90S HX  87
6HR MIN TEMP:  86; 6HR MAX TEMP:  93;

RED OAK *      SUNNY     82  66  57 N7        29.93S HX  85
SHENANDOAH *   SUNNY     82  70  65 N7        29.92S HX  86
$$

IAZ047>049-059>061-072>074-084-240100-
   CENTRAL IOWA

CITY           SKY/WX    TMP DP  RH WIND       PRES   REMARKS
AMES           SUNNY     79  63  57 N15       29.92S HX  80
6HR MIN TEMP:  79; 6HR MAX TEMP:  83;

ANKENY *       SUNNY     81  61  50 N12       29.92S HX  81
BOONE *        MOSUNNY   79  61  53 N15       29.93S HX  80
CHARITON *     SUNNY     82  61  47 N12       29.90S HX  83
DES MOINES     MOSUNNY   84  60  44 N13       29.90S HX  84
6HR MIN TEMP:  84; 6HR MAX TEMP:  90;

GRINNELL*      SUNNY     77  61  57 NW9       29.92S
KNOXVILLE *    SUNNY     82  61  47 N10G16    29.89S HX  83
MARSHALLTOWN   SUNNY     78  63  59 N16       29.91S HX  80
6HR MIN TEMP:  77; 6HR MAX TEMP:  84;

NEWTON *       SUNNY     79  61  53 N13G22    29.91S HX  80
PELLA *        SUNNY     83  60  46 N8        29.91R HX  83
$$

IAZ004>006-015-016-023>025-035-036-240100-
   NORTH CENTRAL IOWA

CITY           SKY/WX    TMP DP  RH WIND       PRES   REMARKS
ALGONA *       CLOUDY    75  59  57 N9G17     29.97S
CLARION *      MOSUNNY   73  61  64 N8G15     29.96R
ESTHERVILLE    MOSUNNY   73  60  63 N13       29.98S
6HR MIN TEMP:  72; 6HR MAX TEMP:  76;

FORT DODGE *   SUNNY     75  57  53 N8G16     29.97R
MASON CITY     SUNNY     74  60  61 N12       29.96S
6HR MIN TEMP:  73; 6HR MAX TEMP:  79;

FOREST CITY *    N/A     73  59  60 N9        29.96S
WEBSTER CITY * SUNNY     77  59  53 N13       29.93S
IOWA FALLS *   PTSUNNY   75  62  62 N7        29.95S
$$

IAZ007>011-017>019-026>030-037>042-050>054-066-240100-
   NORTHEAST IOWA

CITY           SKY/WX    TMP DP  RH WIND       PRES   REMARKS
CEDAR RAPIDS   SUNNY     76  63  64 N10       29.88R
6HR MIN TEMP:  76; 6HR MAX TEMP:  84;

CHARLES CITY * SUNNY     75  61  60 N9G18     29.93S
DECORAH *      SUNNY     75  61  60 N9G16     29.90S
DUBUQUE        SUNNY     76  61  59 NW13      29.88R
6HR MIN TEMP:  76; 6HR MAX TEMP:  83;

MONTICELLO *   SUNNY     79  63  57 N9G16     29.87S HX  80
OELWEIN *        N/A    N/A N/A N/A MISG        N/A
WATERLOO       MOSUNNY   76  61  59 N13       29.89F
6HR MIN TEMP:  76; 6HR MAX TEMP:  82;

$$

IAZ064-065-067-068-078-240100-
   EAST CENTRAL IOWA

CITY           SKY/WX    TMP DP  RH WIND       PRES   REMARKS
DAVENPORT      SUNNY     79  63  57 NW9       29.88R HX  80
6HR MIN TEMP:  79; 6HR MAX TEMP:  87;

IOWA CITY      SUNNY     82  59  45 N12G24    29.89R HX  82
6HR MIN TEMP:  82; 6HR MAX TEMP:  89;

MT. PLEASANT * SUNNY     82  61  50 N13G18    29.87R HX  82
MUSCATINE *    SUNNY     81  63  54 NW10      29.87R HX  82
QUAD CITIES    SUNNY     82  62  50 NW10      29.85R HX  83
6HR MIN TEMP:  82; 6HR MAX TEMP:  90;

$$

IAZ062-063-075>077-085>089-095>099-240100-
   SOUTHEAST IOWA

CITY           SKY/WX    TMP DP  RH WIND       PRES   REMARKS
BURLINGTON     SUNNY     83  66  56 N12       29.86R HX  85
6HR MIN TEMP:  83; 6HR MAX TEMP:  91;

FAIRFIELD *    SUNNY     81  64  57 N9        29.88R HX  82
FORT MADISON * SUNNY     82  66  57 N10       29.87R HX  85
KEOKUK *       SUNNY     86  63  45 N7        29.84S HX  87
OSKALOOSA *      N/A     81  62  52 N9G16     29.90R HX  82
CENTERVILLE *    N/A     84  61  45 NW8G18    29.90S HX  84
OTTUMWA        SUNNY     84  61  45 N14       29.89R HX  84
6HR MIN TEMP:  84; 6HR MAX TEMP:  94;

WASHINGTON *   SUNNY     81  64  57 N12G18    29.89R HX  82
$$

ABBREVIATIONS USED IN REMARKS
   TC - TEMPERATURES IN CELSIUS
  WCI - WIND CHILL INDEX
   HX - HEAT INDEX
  VSB - VISIBILITY
$$





USA.gov is the U.S. government's official web portal to all federal, state and local government web resources and services.